Weather History for Cancun, Mexico

Change the Weather History Date:

Wednesday, April 24, 2013

  Actual Average Record
Temperature  
Mean Temperature 80 °F -  
Max Temperature 86 °F 86 °F 91 °F (1997)
Min Temperature 75 °F 70 °F 57 °F (1998)
Cooling Degree Days 16    
Growing Degree Days 30 (Base 50)    
Moisture  
Dew Point 72 °F    
Average Humidity 74    
Maximum Humidity 89    
Minimum Humidity 58    
Precipitation  
Precipitation 0.00 in - - ()
Sea Level Pressure  
Sea Level Pressure 29.99 in    
Wind  
Wind Speed 7 mph ()    
Max Wind Speed 15 mph    
Max Gust Speed -    
Visibility 6.7 miles    
Events      
Averages and records for this station are not official NWS values.
T = Trace of Precipitation, MM = Missing Value Source: Averaged Metar Reports

Daily Weather History Graph

Daily Weather History Graph

Search for Another Location

Airport:

Trip Planner

Search our weather history database for the weather conditions in past years. The results will help you decide how hot, cold, wet, or windy it might be!

Date:

Astronomy

Apr. 24, 2013 Rise Set
Actual Time 6:21 AM CDT 7:09 PM CDT
Civil Twilight 5:58 AM CDT 7:32 PM CDT
Nautical Twilight 5:31 AM CDT 7:59 PM CDT
Astronomical Twilight 5:04 AM CDT 8:27 PM CDT
Moon 6:16 PM CDT (4/24) 5:16 AM CDT (4/24)
Length of Visible Light 13h 34m
Length of Day
12h 48m
Waxing Gibbous, 98% of the Moon is Illuminated
Apr 24
Waxing Gibbous
Apr 25
Full
May 2
Last Quarter
May 9
New
May 17
First Quarter

Hourly Weather History & Observations

Time (CDT) Temp. Heat Index Dew Point Humidity Pressure Visibility Wind Dir Wind Speed Gust Speed Precip Events Conditions
12:45 AM 78.8 °F - 71.6 °F 78% 29.95 in 7.0 mi East 5.8 mph - N/A   Partly Cloudy
1:45 AM 78.8 °F - 71.6 °F 78% 29.96 in 7.0 mi East 8.1 mph - N/A   Clear
2:43 AM 78.8 °F - 71.6 °F 78% 29.95 in 7.0 mi East 5.8 mph - N/A   Clear
3:46 AM 77.0 °F - 71.6 °F 83% 29.93 in 7.0 mi East 5.8 mph - N/A   Clear
4:45 AM 75.2 °F - 71.6 °F 89% 29.96 in 7.0 mi East 5.8 mph - N/A   Partly Cloudy
5:44 AM 75.2 °F - 71.6 °F 89% 29.97 in 7.0 mi ENE 5.8 mph - N/A   Scattered Clouds
6:43 AM 77.0 °F - 71.6 °F 83% 29.95 in 7.0 mi ENE 5.8 mph - N/A   Scattered Clouds
7:47 AM 80.6 °F 85.4 °F 73.4 °F 79% 30.01 in 7.0 mi ESE 6.9 mph - N/A   Scattered Clouds
8:47 AM 82.4 °F 87.2 °F 71.6 °F 70% 30.03 in 7.0 mi NE 5.8 mph - N/A   Scattered Clouds
9:46 AM 82.4 °F 87.2 °F 71.6 °F 70% 30.04 in 7.0 mi ENE 10.4 mph - N/A   Scattered Clouds
10:48 AM 84.2 °F 89.6 °F 71.6 °F 66% 30.04 in 6.0 mi ESE 15.0 mph - N/A   Scattered Clouds
11:49 AM 86.0 °F 91.8 °F 71.6 °F 62% 30.03 in 6.0 mi East 6.9 mph - N/A   Scattered Clouds
12:45 PM 86.0 °F 90.4 °F 69.8 °F 58% 30.01 in 6.0 mi ESE 13.8 mph - N/A   Scattered Clouds
1:44 PM 86.0 °F 91.8 °F 71.6 °F 62% 30.00 in 6.0 mi ESE 8.1 mph - N/A   Scattered Clouds
2:45 PM 84.2 °F 89.6 °F 71.6 °F 66% 29.97 in 6.0 mi SE 12.7 mph - N/A   Mostly Cloudy
3:47 PM 84.2 °F 89.6 °F 71.6 °F 66% 29.95 in 6.0 mi SE 12.7 mph - N/A   Scattered Clouds
4:41 PM 84.2 °F 89.6 °F 71.6 °F 66% 29.96 in 6.0 mi SE 10.4 mph - N/A   Mostly Cloudy
5:45 PM 84.2 °F 90.9 °F 73.4 °F 70% 29.97 in 6.0 mi ESE 12.7 mph - N/A   Mostly Cloudy
6:43 PM 82.4 °F 87.2 °F 71.6 °F 70% 29.98 in 7.0 mi ESE 10.4 mph - N/A   Mostly Cloudy
7:40 PM 80.6 °F 85.4 °F 73.4 °F 79% 29.99 in 7.0 mi ESE 6.9 mph - N/A   Scattered Clouds
8:42 PM 80.6 °F 85.4 °F 73.4 °F 79% 30.01 in 7.0 mi ESE 5.8 mph - N/A   Scattered Clouds
9:45 PM 80.6 °F 85.4 °F 73.4 °F 79% 30.02 in 7.0 mi ESE 6.9 mph - N/A   Scattered Clouds
10:52 PM 80.6 °F 85.4 °F 73.4 °F 79% 30.05 in 7.0 mi ESE 6.9 mph - N/A   Scattered Clouds
11:44 PM 80.6 °F 85.4 °F 73.4 °F 79% 30.05 in 7.0 mi East 6.9 mph - N/A   Scattered Clouds